EJU4457 LFPG-LIML

Flight info

Callsign EJU4457
Flight time 1h 4m
Altitude 31000
Route LANVI DCT DEVDI DCT RIPUS DCT GERSA DCT SOSON DCT ODINA
Aircraft A319/M-SDE3FGHIRWY/LB1

Departure

Time 2026-05-01 09:39
Airport Charles de Gaulle International Airport (LFPG)

Arrival

Time 2026-05-01 10:44
Airport Milano Linate Airport (LIML)
Time Latitude Longitude Altitude Speed Heading
2026-05-01 09:16 49.00653 2.58020 355 ft 0 kts 269°
2026-05-01 09:28 49.00653 2.58022 354 ft 1 kts 269°
2026-05-01 09:28 49.00653 2.58048 362 ft 3 kts 263°
2026-05-01 09:29 49.00660 2.58108 362 ft 3 kts 269°
2026-05-01 09:29 49.00658 2.58133 359 ft 3 kts 317°
2026-05-01 09:30 49.00655 2.58138 358 ft 0 kts 355°
2026-05-01 09:32 49.00656 2.58138 359 ft 1 kts 355°
2026-05-01 09:32 49.00752 2.58126 361 ft 12 kts 355°
2026-05-01 09:32 49.00857 2.58110 360 ft 18 kts 353°
2026-05-01 09:33 49.00901 2.57966 354 ft 17 kts 265°
2026-05-01 09:33 49.00890 2.57781 356 ft 18 kts 265°
2026-05-01 09:33 49.00864 2.57331 357 ft 26 kts 265°
2026-05-01 09:34 49.00850 2.57027 358 ft 31 kts 266°
2026-05-01 09:34 49.00831 2.56671 355 ft 36 kts 265°
2026-05-01 09:34 49.00769 2.55951 354 ft 30 kts 262°
2026-05-01 09:35 49.00740 2.55646 357 ft 29 kts 263°
2026-05-01 09:35 49.00634 2.55249 355 ft 19 kts 175°
2026-05-01 09:35 49.00488 2.55316 360 ft 25 kts 163°
2026-05-01 09:36 49.00305 2.55390 361 ft 30 kts 164°
2026-05-01 09:36 49.00112 2.55475 360 ft 27 kts 163°
2026-05-01 09:36 48.99956 2.55547 359 ft 13 kts 163°
2026-05-01 09:36 48.99876 2.55611 358 ft 14 kts 134°
2026-05-01 09:37 48.99832 2.55745 354 ft 15 kts 109°
2026-05-01 09:37 48.99754 2.55808 357 ft 3 kts 173°
2026-05-01 09:37 48.99727 2.55813 354 ft 5 kts 174°
2026-05-01 09:38 48.99644 2.55826 354 ft 8 kts 174°
2026-05-01 09:38 48.99604 2.55893 355 ft 14 kts 93°
2026-05-01 09:38 48.99632 2.56438 356 ft 92 kts 85°
2026-05-01 09:39 48.99776 2.59536 815 ft 171 kts 88°
2026-05-01 09:39 48.99861 2.61354 1567 ft 173 kts 87°
2026-05-01 09:39 48.99964 2.63280 2056 ft 194 kts 87°
2026-05-01 09:40 49.00091 2.65466 2511 ft 220 kts 86°
2026-05-01 09:40 49.00370 2.70622 3768 ft 265 kts 87°
2026-05-01 09:40 49.00519 2.73450 4772 ft 270 kts 87°
2026-05-01 09:41 49.00670 2.76305 5878 ft 272 kts 88°
2026-05-01 09:41 49.00357 2.82085 7874 ft 278 kts 101°
2026-05-01 09:41 49.00042 2.85001 8861 ft 281 kts 102°
2026-05-01 09:42 48.99711 2.87969 9843 ft 285 kts 102°
2026-05-01 09:42 48.99376 2.90964 10756 ft 289 kts 101°
2026-05-01 09:42 48.98695 2.97222 11963 ft 319 kts 100°
2026-05-01 09:43 48.98119 3.03945 13472 ft 333 kts 99°
2026-05-01 09:43 48.97844 3.07466 14315 ft 336 kts 99°
2026-05-01 09:43 48.97566 3.11024 15040 ft 340 kts 99°
2026-05-01 09:44 48.96983 3.18249 16497 ft 348 kts 99°
2026-05-01 09:44 48.96678 3.21868 17219 ft 351 kts 99°
2026-05-01 09:44 48.96363 3.25572 17941 ft 355 kts 100°
2026-05-01 09:45 48.96042 3.29326 18647 ft 359 kts 100°
2026-05-01 09:45 48.95385 3.36905 19222 ft 361 kts 100°
2026-05-01 09:45 48.95056 3.40702 19254 ft 361 kts 100°
2026-05-01 09:46 48.94718 3.44579 19262 ft 381 kts 100°
2026-05-01 09:46 48.94354 3.48678 19260 ft 397 kts 100°
2026-05-01 09:46 48.93980 3.52896 19653 ft 402 kts 99°
2026-05-01 09:46 48.93639 3.57019 20905 ft 385 kts 98°
2026-05-01 09:47 48.93388 3.61028 21975 ft 378 kts 97°
2026-05-01 09:47 48.93192 3.64962 22726 ft 378 kts 97°
2026-05-01 09:47 48.93012 3.68973 23419 ft 380 kts 96°
2026-05-01 09:47 48.92829 3.73002 24016 ft 383 kts 97°
2026-05-01 09:48 48.92634 3.77048 24526 ft 385 kts 97°
2026-05-01 09:48 48.92427 3.81120 25028 ft 388 kts 97°
2026-05-01 09:48 48.92207 3.85218 25507 ft 390 kts 97°
2026-05-01 09:48 48.91980 3.89346 25991 ft 393 kts 97°
2026-05-01 09:49 48.91750 3.93493 26470 ft 395 kts 97°
2026-05-01 09:49 48.91516 3.97667 26938 ft 398 kts 97°
2026-05-01 09:49 48.91277 4.01867 27405 ft 400 kts 97°
2026-05-01 09:49 48.91036 4.06095 27874 ft 403 kts 97°
2026-05-01 09:50 48.90794 4.10349 28337 ft 405 kts 97°
2026-05-01 09:50 48.90551 4.14634 28801 ft 408 kts 97°
2026-05-01 09:50 48.90276 4.18936 29249 ft 409 kts 101°
2026-05-01 09:50 48.89616 4.23150 29680 ft 410 kts 110°
2026-05-01 09:51 48.88486 4.27118 30116 ft 411 kts 120°
2026-05-01 09:51 48.87108 4.30879 30501 ft 413 kts 120°
2026-05-01 09:51 48.85688 4.34752 30854 ft 416 kts 120°
2026-05-01 09:51 48.84278 4.38603 31162 ft 419 kts 120°
2026-05-01 09:52 48.81489 4.46195 31272 ft 400 kts 120°
2026-05-01 09:52 48.78837 4.53415 31266 ft 387 kts 120°
2026-05-01 09:53 48.76217 4.60534 31272 ft 386 kts 120°
2026-05-01 09:53 48.73593 4.67627 31273 ft 386 kts 120°
2026-05-01 09:54 48.70967 4.74705 31276 ft 386 kts 120°
2026-05-01 09:54 48.68335 4.81781 31258 ft 386 kts 120°
2026-05-01 09:55 48.65693 4.88862 31252 ft 386 kts 120°
2026-05-01 09:55 48.63045 4.95944 31251 ft 387 kts 120°
2026-05-01 09:56 48.60387 5.03023 31271 ft 387 kts 120°
2026-05-01 09:56 48.57739 5.10054 31257 ft 388 kts 120°
2026-05-01 09:57 48.55066 5.17133 31254 ft 388 kts 120°
2026-05-01 09:57 48.52390 5.24215 31253 ft 389 kts 120°
2026-05-01 09:58 48.49704 5.31315 31258 ft 389 kts 120°
2026-05-01 09:58 48.47015 5.38400 31269 ft 389 kts 120°
2026-05-01 09:59 48.44769 5.44290 31267 ft 390 kts 120°
2026-05-01 09:59 48.42066 5.51371 31259 ft 391 kts 120°
2026-05-01 10:00 48.40688 5.54977 31365 ft 402 kts 120°
2026-05-01 10:00 48.39274 5.58671 31494 ft 412 kts 120°
2026-05-01 10:00 48.37833 5.62428 31752 ft 417 kts 120°
2026-05-01 10:00 48.36392 5.66184 32133 ft 419 kts 120°
2026-05-01 10:01 48.34931 5.69973 32616 ft 419 kts 120°
2026-05-01 10:01 48.33467 5.73756 33123 ft 418 kts 120°
2026-05-01 10:01 48.32004 5.77528 33643 ft 417 kts 120°
2026-05-01 10:01 48.30570 5.81306 34169 ft 416 kts 118°
2026-05-01 10:02 48.29251 5.85164 34631 ft 415 kts 116°
2026-05-01 10:02 48.28020 5.89080 35056 ft 414 kts 115°
2026-05-01 10:02 48.26829 5.93022 35269 ft 415 kts 115°
2026-05-01 10:02 48.25639 5.96974 35304 ft 414 kts 115°
2026-05-01 10:03 48.23215 6.04822 35300 ft 415 kts 115°
2026-05-01 10:03 48.20719 6.12648 35302 ft 416 kts 116°
2026-05-01 10:04 48.18194 6.20471 35302 ft 416 kts 116°
2026-05-01 10:04 48.15671 6.28274 35302 ft 416 kts 116°
2026-05-01 10:05 48.13155 6.36074 35306 ft 416 kts 116°
2026-05-01 10:05 48.10647 6.43844 35299 ft 416 kts 115°
2026-05-01 10:06 48.08116 6.51655 35292 ft 417 kts 115°
2026-05-01 10:06 48.05569 6.59451 35291 ft 417 kts 116°
2026-05-01 10:07 48.03017 6.67245 35289 ft 418 kts 116°
2026-05-01 10:07 48.00462 6.75048 35295 ft 417 kts 116°
2026-05-01 10:08 47.96647 6.86681 35295 ft 418 kts 115°
2026-05-01 10:09 47.94086 6.94449 35299 ft 418 kts 115°
2026-05-01 10:09 47.91510 7.02217 35305 ft 418 kts 115°
2026-05-01 10:10 47.88919 7.09982 35306 ft 418 kts 115°
2026-05-01 10:10 47.85045 7.21610 35315 ft 418 kts 115°
2026-05-01 10:11 47.82454 7.29362 35306 ft 418 kts 115°
2026-05-01 10:11 47.79846 7.37103 35299 ft 419 kts 115°
2026-05-01 10:12 47.77232 7.44857 35297 ft 419 kts 115°
2026-05-01 10:13 47.73116 7.56322 35303 ft 421 kts 124°
2026-05-01 10:13 47.69641 7.63328 35304 ft 421 kts 124°
2026-05-01 10:14 47.64447 7.73816 35299 ft 423 kts 124°
2026-05-01 10:14 47.60949 7.80845 35299 ft 423 kts 124°
2026-05-01 10:15 47.57448 7.87864 35298 ft 424 kts 124°
2026-05-01 10:15 47.53934 7.94886 35302 ft 424 kts 124°
2026-05-01 10:16 47.50408 8.01897 35298 ft 424 kts 124°
2026-05-01 10:17 47.45127 8.12395 35312 ft 424 kts 124°
2026-05-01 10:17 47.39808 8.22930 35334 ft 435 kts 125°
2026-05-01 10:18 47.36307 8.29827 35334 ft 448 kts 125°
2026-05-01 10:18 47.34424 8.33538 35352 ft 457 kts 124°
2026-05-01 10:19 47.30845 8.40567 35336 ft 461 kts 124°
2026-05-01 10:19 47.26280 8.47224 35351 ft 469 kts 144°
2026-05-01 10:20 47.20234 8.50774 35343 ft 476 kts 168°
2026-05-01 10:20 47.16939 8.51333 35345 ft 477 kts 173°
2026-05-01 10:20 47.10329 8.52279 35322 ft 477 kts 173°
2026-05-01 10:21 47.00413 8.53706 35311 ft 478 kts 173°
2026-05-01 10:22 46.90481 8.55140 35079 ft 480 kts 173°
2026-05-01 10:22 46.83849 8.56095 34577 ft 478 kts 172°
2026-05-01 10:23 46.80540 8.56572 34339 ft 478 kts 172°
2026-05-01 10:23 46.73883 8.57528 33808 ft 483 kts 172°
2026-05-01 10:23 46.70531 8.58006 33552 ft 485 kts 172°
2026-05-01 10:24 46.63795 8.58969 33005 ft 486 kts 172°
2026-05-01 10:24 46.57070 8.59926 32458 ft 486 kts 172°
2026-05-01 10:25 46.50324 8.60881 31298 ft 487 kts 172°
2026-05-01 10:25 46.43559 8.61840 30096 ft 490 kts 173°
2026-05-01 10:26 46.40163 8.62320 29551 ft 491 kts 173°
2026-05-01 10:26 46.36797 8.62795 28984 ft 492 kts 173°
2026-05-01 10:26 46.30144 8.63720 28152 ft 455 kts 172°
2026-05-01 10:27 46.24083 8.64554 26935 ft 425 kts 172°
2026-05-01 10:27 46.18413 8.65349 26081 ft 395 kts 172°
2026-05-01 10:28 46.15737 8.65956 25549 ft 390 kts 160°
2026-05-01 10:28 46.10736 8.69273 24568 ft 397 kts 150°
2026-05-01 10:28 46.08293 8.71033 23959 ft 399 kts 150°
2026-05-01 10:29 46.03352 8.74586 22835 ft 393 kts 150°
2026-05-01 10:29 46.00915 8.76332 22288 ft 391 kts 151°
2026-05-01 10:30 45.95800 8.78951 21293 ft 388 kts 159°
2026-05-01 10:30 45.90719 8.81350 20331 ft 381 kts 158°
2026-05-01 10:31 45.85726 8.83694 19412 ft 374 kts 158°
2026-05-01 10:31 45.80797 8.86006 18247 ft 373 kts 158°
2026-05-01 10:32 45.75862 8.88332 17051 ft 372 kts 159°
2026-05-01 10:32 45.73415 8.89482 16523 ft 369 kts 159°
2026-05-01 10:32 45.68560 8.91752 15509 ft 364 kts 159°
2026-05-01 10:33 45.63769 8.93982 14526 ft 360 kts 159°
2026-05-01 10:33 45.59062 8.96174 13499 ft 355 kts 159°
2026-05-01 10:34 45.56723 8.97263 12969 ft 352 kts 160°
2026-05-01 10:34 45.54397 8.98349 12449 ft 349 kts 160°
2026-05-01 10:34 45.52102 8.99419 11955 ft 346 kts 160°
2026-05-01 10:35 45.47568 9.01527 10949 ft 339 kts 160°
2026-05-01 10:35 45.45351 9.02549 10207 ft 332 kts 160°
2026-05-01 10:35 45.43164 9.03558 9329 ft 328 kts 161°
2026-05-01 10:35 45.40998 9.04555 8464 ft 325 kts 160°
2026-05-01 10:36 45.36895 9.06978 7056 ft 312 kts 154°
2026-05-01 10:36 45.34985 9.08248 6922 ft 286 kts 154°
2026-05-01 10:36 45.33263 9.09394 6636 ft 270 kts 154°
2026-05-01 10:37 45.31577 9.10511 6098 ft 266 kts 154°
2026-05-01 10:37 45.28233 9.12683 4920 ft 261 kts 154°
2026-05-01 10:37 45.26633 9.13829 4346 ft 254 kts 142°
2026-05-01 10:38 45.25551 9.15689 3855 ft 242 kts 111°
2026-05-01 10:38 45.25019 9.17902 3526 ft 228 kts 105°
2026-05-01 10:38 45.24604 9.20024 3155 ft 219 kts 103°
2026-05-01 10:38 45.24499 9.22126 2997 ft 209 kts 84°
2026-05-01 10:39 45.25007 9.23962 2997 ft 198 kts 49°
2026-05-01 10:39 45.26107 9.25017 2996 ft 190 kts 28°
2026-05-01 10:39 45.27228 9.25933 3001 ft 185 kts 33°
2026-05-01 10:39 45.28403 9.26712 2996 ft 186 kts 25°
2026-05-01 10:40 45.29601 9.27381 3044 ft 185 kts 24°
2026-05-01 10:40 45.30792 9.28018 2999 ft 182 kts 24°
2026-05-01 10:40 45.31971 9.28644 2926 ft 178 kts 24°
2026-05-01 10:40 45.33210 9.28928 2506 ft 187 kts 360°
2026-05-01 10:41 45.34488 9.28788 2181 ft 180 kts 360°
2026-05-01 10:41 45.35683 9.28653 1918 ft 160 kts
2026-05-01 10:41 45.37681 9.28437 1499 ft 135 kts 358°
2026-05-01 10:42 45.38596 9.28330 1298 ft 129 kts 359°
2026-05-01 10:42 45.39189 9.28269 1172 ft 128 kts
2026-05-01 10:42 45.40385 9.28144 913 ft 133 kts
2026-05-01 10:42 45.41311 9.28043 797 ft 135 kts
2026-05-01 10:43 45.42243 9.27946 602 ft 134 kts
2026-05-01 10:43 45.43172 9.27845 438 ft 134 kts 359°
2026-05-01 10:43 45.43779 9.27777 368 ft 125 kts 358°
2026-05-01 10:43 45.44518 9.27708 357 ft 83 kts 355°
2026-05-01 10:44 45.44957 9.27658 362 ft 53 kts 356°
2026-05-01 10:44 45.45260 9.27641 359 ft 35 kts 15°
2026-05-01 10:44 45.45422 9.27744 365 ft 19 kts 34°
2026-05-01 10:44 45.45491 9.27814 362 ft 9 kts 344°
2026-05-01 10:45 45.45555 9.27815 363 ft 10 kts
2026-05-01 10:45 45.45623 9.27816 363 ft 10 kts
2026-05-01 10:45 45.45698 9.27818 363 ft 11 kts
2026-05-01 10:45 45.45789 9.27820 366 ft 16 kts
2026-05-01 10:46 45.45884 9.27822 363 ft 10 kts 11°
2026-05-01 10:46 45.45909 9.27911 369 ft 11 kts 92°
2026-05-01 10:46 45.45929 9.27969 363 ft 6 kts
2026-05-01 10:46 45.45963 9.27967 365 ft 3 kts
2026-05-01 10:47 45.45970 9.27968 363 ft 0 kts